sat.trackr.live / text

‹ back to catalog

STARLINK-30169

NORAD 57499 · 2023-113E

PAYLOAD ACTIVE UNKNOWN

§ Identity

Operator
Country
US
Launch date
2023-08-07
Launch site
AFETR
Launch vehicle
Mass (kg)
RCS (m²)

Purposes: comms

External: N2YO · Heavens-Above · Gunter

§ Orbital elements

Epoch: 2026-09-20T13:11:16.438848Z

Period
94.27 min
Inclination
43.0054°
Eccentricity
0.0001445
Mean motion
15.27563140 rev/d
Perigee alt
482.1 km
Apogee alt
484.1 km
Semi-major
6,861.2 km
B*
2.0318e-4
RAAN
341.4278°
Arg perigee
282.5276°
Mean anomaly
77.5414°
Rev number
17,348

§ Raw data

STARLINK-301691 57499U 23113E   26263.54949582  .00005330  00000+0  20318-3 0  99962 57499  43.0054 341.4278 0001445 282.5276  77.5414 15.27563140173482

JSON: /api/v1/satellites/57499 · /tle

For live sub-satellite position, see the globe view (requires WebGL).

§ Visibility from observer

Set your observer location to see the next 7 days of passes ≥ 10°. The values pass through the URL so the page stays shareable.

No JS? Fill the form by hand. The geolocation button needs JavaScript.